DCM228 KBUR-KLAS

Flight info

Callsign DCM228
Flight time N/A
Altitude 27000
Route VNY3 DAG CRESO5
Aircraft B350/L-W/S

Departure

Time 2026-05-07 19:15
Airport Hollywood Burbank/Bob Hope Airport (KBUR)

Arrival

Time N/A
Airport Harry Reid International Airport (KLAS)
Time Latitude Longitude Altitude Speed Heading
2026-05-07 18:57 34.19981 -118.35970 748 ft 0 kts 81°
2026-05-07 19:09 34.19981 -118.35966 750 ft 0 kts 81°
2026-05-07 19:10 34.19984 -118.35946 750 ft 3 kts 80°
2026-05-07 19:10 34.19976 -118.35908 749 ft 6 kts 164°
2026-05-07 19:10 34.19951 -118.35950 749 ft 6 kts 273°
2026-05-07 19:10 34.19951 -118.36000 750 ft 5 kts 268°
2026-05-07 19:11 34.19925 -118.36025 749 ft 6 kts 173°
2026-05-07 19:11 34.19888 -118.36047 749 ft 7 kts 262°
2026-05-07 19:11 34.19891 -118.36114 749 ft 8 kts 270°
2026-05-07 19:11 34.19893 -118.36190 750 ft 9 kts 271°
2026-05-07 19:12 34.19893 -118.36273 751 ft 10 kts 270°
2026-05-07 19:12 34.19895 -118.36366 752 ft 12 kts 271°
2026-05-07 19:12 34.19908 -118.36473 752 ft 13 kts 274°
2026-05-07 19:12 34.19908 -118.36594 752 ft 15 kts 272°
2026-05-07 19:13 34.19911 -118.36729 753 ft 17 kts 269°
2026-05-07 19:13 34.19907 -118.36875 753 ft 10 kts 237°
2026-05-07 19:13 34.19823 -118.36901 752 ft 9 kts 178°
2026-05-07 19:13 34.19793 -118.36853 752 ft 3 kts 93°
2026-05-07 19:14 34.19793 -118.36852 752 ft 0 kts 93°
2026-05-07 19:14 34.19793 -118.36845 752 ft 9 kts 92°
2026-05-07 19:14 34.19783 -118.36380 750 ft 97 kts 91°
2026-05-07 19:15 34.19778 -118.35345 909 ft 134 kts 91°
2026-05-07 19:15 34.19790 -118.34198 1400 ft 145 kts 91°
2026-05-07 19:15 34.19509 -118.33005 1814 ft 159 kts 128°
2026-05-07 19:15 34.18535 -118.32321 2211 ft 168 kts 173°
2026-05-07 19:16 34.17406 -118.32671 2549 ft 176 kts 216°
2026-05-07 19:16 34.16503 -118.33685 2908 ft 180 kts 224°
2026-05-07 19:16 34.15608 -118.34772 3288 ft 183 kts 224°
2026-05-07 19:16 34.14848 -118.35986 3653 ft 185 kts 250°
2026-05-07 19:17 34.14866 -118.37528 4027 ft 189 kts 292°
2026-05-07 19:17 34.15634 -118.38822 4486 ft 191 kts 311°
2026-05-07 19:17 34.16338 -118.39770 4876 ft 190 kts 311°